Погода в Бельск-Подляски

Польша     52°45′54″N   23°11′12″E
темп.,
°C
ветер,
м/с
пор.,
м/с
влажн.,
%
обл.,
%
осадки,
мм/ч
давл.,
гПа
погр.,
м
19 сентября, вс
вс1923:00+6с5895100 7.1 1010862
02:00+6с61094100 9.9 1010700
05:00+6с6994100 1.4 1009980
08:00+6с6994100 3.1 10091049
11:00+6с6993100 1.6 10101054
14:00+6с71094100 3.1 1011887
17:00+5с71194100 1.1 1011696
20:00+5с61095100 1.4 1013638
20 сентября, пн
пн2023:00+5с5996100 0.1 1013572
02:00+5с5997100 0.1 1014555
05:00+5с5897100 0.1 1014626
08:00+4ссз5897100 0.1 1015680
11:00+5ссз5791100 0.1 1016806
14:00+5ссз5888100 0.2 1017951
17:00+5ссз5989100 0.2 1017847
20:00+4ссз5892100 0.3 1018932
21 сентября, вт
вт2123:00+4сз5992100 0.1 1019678
02:00+4сз5893100 0.2 1019643
05:00+4сз4894100 0.1 1020737
08:00+5сз5993100 0.2 1021629
11:00+7сз6881100 0.1 1021960
14:00+8ссз61172100 0.3 10221507
17:00+10с376497 0.0 1021793
20:00+6св1182100 0.1 102216
22 сентября, ср
ср2223:00+4зсз1190100 0.0 102213
02:00+3сз379569 0.0 1022143
05:00+2ссз379667 0.0 1022134
08:00+5ссз498265 0.0 1022314
11:00+8ссз476994 0.0 1021645
14:00+10с6858100 0.0 10201559
17:00+7с5981100 0.1 1020902
20:00+6ссз4985100 0.3 1019923
23 сентября, чт
чт2323:00+6ссз3692100 0.3 1018382
02:00+6сз2591100 0.3 1018249
05:00+6сз2390100 0.0 101798
08:00+7зсз128398 0.0 1016174
11:00+9зюз2370100 0.0 1015563
14:00+11зюз4564100 0.0 10141179
17:00+11зюз3567100 0.1 1012279
20:00+9ю4779100 0.3 1010218